Dades meteomassalio
Diari Summary for Agost 5, 2017 Units:  Metric    English   Both
« Previous Day
Next Day »
Diari Semanal Mensual Anual Personalitzat
  Maxima: Minima: Mijana:
Temperatura: -17.8 °C -5.5 °C -1.6 °C
Rosada: -17.8 °C -10.2 °C -8.6 °C
Humitat: Humidity % 31 % 48 %
Velocitat del vent: 0 km/h 0 km/h 9.7 km/h
Racha vent: 0 km/h - -
Vent:- - SW
Pressio: 0 hPa 34212.1 hPa -
Pluja: 0 mm    
Historical Graphs
 
 
Tabular Data for Agost 5, 2017
Time Temperature Dew Point Pressure Wind Wind Speed Wind Gust Humidity Rainfall Rate (Hourly) solar Conditions
-17.8 °C -17.8 °C 0 hPa Calm     Humidity % 0 mm SolarRadiationWatts/m^2 W/m2 Conditions
00:00 -2.1 °C -10.2 °C 34303.6 hPa Calm     41 % 0 mm 0.0 W/m2 CLR
00:05 -2.2 °C -10.2 °C 34303.6 hPa Calm     41 % 0 mm 0.0 W/m2 CLR
00:10 -2.1 °C -10.2 °C 34303.6 hPa Calm     41 % 0 mm 0.0 W/m2 CLR
00:15 -2.1 °C -10.2 °C 34303.6 hPa Calm     41 % 0 mm 0.0 W/m2 CLR
00:20 -2.1 °C -10.2 °C 34303.6 hPa Calm     41 % 0 mm 0.0 W/m2 CLR
00:25 -2.2 °C -10 °C 34303.6 hPa Calm     42 % 0 mm 0.0 W/m2 CLR
00:30 -2.4 °C -10.2 °C 34303.6 hPa Calm     42 % 0 mm 0.0 W/m2 CLR
00:35 -2.6 °C -10.2 °C 34303.6 hPa Calm     43 % 0 mm 0.0 W/m2 CLR
00:40 -2.7 °C -10.1 °C 34303.6 hPa Calm     44 % 0 mm 0.0 W/m2 CLR
00:45 -2.7 °C -10.1 °C 34303.6 hPa Calm     44 % 0 mm 0.0 W/m2 CLR
00:50 -2.7 °C -10.1 °C 34303.6 hPa Calm     44 % 0 mm 0.0 W/m2 CLR
00:55 -2.8 °C -10.2 °C 34303.6 hPa Calm     44 % 0 mm 0.0 W/m2 CLR
01:00 -2.8 °C -10.2 °C 34303.6 hPa Calm     44 % 0 mm 0.0 W/m2 CLR
01:05 -2.9 °C -10.1 °C 34303.6 hPa Calm     45 % 0 mm 0.0 W/m2 CLR
01:10 -2.9 °C -10.1 °C 34303.6 hPa Calm     45 % 0 mm 0.0 W/m2 CLR
01:15 -3 °C -10 °C 34303.6 hPa Calm     46 % 0 mm 0.0 W/m2 CLR
01:20 -3.2 °C -10 °C 34303.6 hPa Calm     47 % 0 mm 0.0 W/m2 CLR
01:21 -3.2 °C -10.1 °C 34303.6 hPa Calm     47 % 0 mm 0.0 W/m2 CLR
01:26 -3.4 °C -10.2 °C 34303.6 hPa Calm     47 % 0 mm 0.0 W/m2 CLR
01:31 -3.4 °C -10 °C 34303.6 hPa Calm     48 % 0 mm 0.0 W/m2 CLR
01:36 -3.4 °C -9.9 °C 34303.6 hPa Calm     48 % 0 mm 0.0 W/m2 CLR
01:46 -3.4 °C -10 °C 34303.6 hPa Calm     48 % 0 mm 0.0 W/m2 CLR
01:51 -3.4 °C -10.1 °C 34303.6 hPa Calm     48 % 0 mm 0.0 W/m2 CLR
01:56 -3.6 °C -9.9 °C 34303.6 hPa Calm     49 % 0 mm 0.0 W/m2 CLR
02:01 -3.6 °C -10 °C 34303.6 hPa Calm     49 % 0 mm 0.0 W/m2 CLR
02:06 -3.7 °C -10.1 °C 34303.6 hPa Calm     49 % 0 mm 0.0 W/m2 CLR
02:11 -3.7 °C -10.1 °C 34303.6 hPa Calm     49 % 0 mm 0.0 W/m2 CLR
02:16 -3.7 °C -10.1 °C 34303.6 hPa Calm     49 % 0 mm 0.0 W/m2 CLR
02:21 -3.7 °C -9.9 °C 34303.6 hPa Calm     50 % 0 mm 0.0 W/m2 CLR
02:26 -3.7 °C -9.9 °C 34303.6 hPa Calm     50 % 0 mm 0.0 W/m2 CLR
02:31 -3.7 °C -9.9 °C 34303.6 hPa Calm     50 % 0 mm 0.0 W/m2 CLR
02:36 -3.7 °C -9.8 °C 34303.6 hPa Calm     50 % 0 mm 0.0 W/m2 CLR
02:40 -3.7 °C -9.8 °C 34303.6 hPa Calm     50 % 0 mm 0.0 W/m2 CLR
02:45 -3.7 °C -9.8 °C 34303.6 hPa Calm     50 % 0 mm 0.0 W/m2 CLR
02:50 -3.7 °C -9.9 °C 34303.6 hPa Calm     50 % 0 mm 0.0 W/m2 CLR
02:55 -3.8 °C -9.8 °C 34303.6 hPa Calm     51 % 0 mm 0.0 W/m2 CLR
03:00 -3.8 °C -9.7 °C 34303.6 hPa Calm     52 % 0 mm 0.0 W/m2 CLR
03:05 -3.9 °C -9.8 °C 34303.6 hPa Calm     52 % 0 mm 0.0 W/m2 CLR
03:10 -4 °C -9.8 °C 34303.6 hPa Calm     52 % 0 mm 0.0 W/m2 CLR
03:15 -3.9 °C -9.6 °C 34303.6 hPa Calm     53 % 0 mm 0.0 W/m2 CLR
03:20 -3.9 °C -9.5 °C 34303.6 hPa Calm     54 % 0 mm 0.0 W/m2 CLR
03:25 -4 °C -9.3 °C 34313.7 hPa Calm     55 % 0 mm 0.0 W/m2 CLR
03:26 -4 °C -9.4 °C 34313.7 hPa Calm     55 % 0 mm 0.0 W/m2 CLR
03:31 -4.1 °C -9.6 °C 34313.7 hPa Calm     54 % 0 mm 0.0 W/m2 CLR
03:36 -4.2 °C -9.7 °C 34303.6 hPa Calm     54 % 0 mm 0.0 W/m2 CLR
03:41 -4.2 °C -9.6 °C 34313.7 hPa Calm     55 % 0 mm 0.0 W/m2 CLR
03:46 -4.2 °C -9.6 °C 34313.7 hPa Calm     55 % 0 mm 0.0 W/m2 CLR
03:51 -4.2 °C -9.6 °C 34313.7 hPa Calm     55 % 0 mm 0.0 W/m2 CLR
03:56 -4.3 °C -9.6 °C 34303.6 hPa Calm     55 % 0 mm 0.0 W/m2 CLR
04:01 -4.3 °C -9.7 °C 34303.6 hPa Calm     55 % 0 mm 0.0 W/m2 CLR
04:06 -4.3 °C -9.7 °C 34313.7 hPa Calm     55 % 0 mm 0.0 W/m2 CLR
04:11 -4.3 °C -9.7 °C 34313.7 hPa Calm     55 % 0 mm 0.0 W/m2 CLR
04:16 -4.3 °C -9.5 °C 34313.7 hPa Calm     56 % 0 mm 0.0 W/m2 CLR
04:21 -4.3 °C -9.6 °C 34313.7 hPa Calm     56 % 0 mm 0.0 W/m2 CLR
04:26 -4.4 °C -9.6 °C 34313.7 hPa Calm     56 % 0 mm 0.0 W/m2 CLR
04:31 -4.5 °C -9.5 °C 34313.7 hPa Calm     57 % 0 mm 0.0 W/m2 CLR
04:36 -4.5 °C -9.5 °C 34313.7 hPa Calm     57 % 0 mm 0.0 W/m2 CLR
04:41 -4.5 °C -9.5 °C 34313.7 hPa Calm     57 % 0 mm 0.0 W/m2 CLR
04:46 -4.4 °C -9.5 °C 34313.7 hPa Calm     57 % 0 mm 0.0 W/m2 CLR
04:50 -4.4 °C -9.4 °C 34313.7 hPa Calm     57 % 0 mm 0.0 W/m2 CLR
04:55 -4.4 °C -9.4 °C 34313.7 hPa Calm     57 % 0 mm 0.0 W/m2 CLR
05:00 -4.4 °C -9.3 °C 34303.6 hPa Calm     58 % 0 mm 0.0 W/m2 CLR
05:05 -4.4 °C -9.3 °C 34313.7 hPa Calm     58 % 0 mm 0.0 W/m2 CLR
05:10 -4.4 °C -9.3 °C 34313.7 hPa Calm     58 % 0 mm 0.0 W/m2 CLR
05:16 -4.5 °C -9.4 °C 34303.6 hPa Calm     58 % 0 mm 0.0 W/m2 CLR
05:19 -4.6 °C -9.4 °C 34303.6 hPa Calm     58 % 0 mm 0.0 W/m2 CLR
05:21 -4.6 °C -9.4 °C 34303.6 hPa Calm     58 % 0 mm 0.0 W/m2 CLR
05:25 -4.6 °C -9.3 °C 34313.7 hPa Calm     59 % 0 mm 0.0 W/m2 CLR
05:26 -4.6 °C -9.3 °C 34313.7 hPa Calm     59 % 0 mm 0.0 W/m2 CLR
05:27 -4.7 °C -9.4 °C 34303.6 hPa Calm     59 % 0 mm 0.0 W/m2 CLR
05:32 -4.7 °C -9.4 °C 34303.6 hPa Calm     59 % 0 mm 0.0 W/m2 CLR
05:37 -4.8 °C -9.3 °C 34303.6 hPa Calm     60 % 0 mm 0.0 W/m2 CLR
05:42 -4.8 °C -9.4 °C 34303.6 hPa Calm     60 % 0 mm 0.0 W/m2 CLR
05:47 -4.9 °C -9.3 °C 34313.7 hPa Calm     61 % 0 mm 0.0 W/m2 CLR
05:52 -4.9 °C -9.4 °C 34313.7 hPa Calm     61 % 0 mm 0.0 W/m2 CLR
05:57 -5 °C -9.4 °C 34303.6 hPa Calm     61 % 0 mm 0.0 W/m2 CLR
06:02 -5 °C -9.3 °C 34313.7 hPa Calm     62 % 0 mm 0.0 W/m2 CLR
06:07 -5.1 °C -9.3 °C 34313.7 hPa Calm     62 % 0 mm 0.0 W/m2 CLR
06:12 -5.1 °C -9.3 °C 34313.7 hPa Calm     62 % 0 mm 0.0 W/m2 CLR
06:17 -5.1 °C -9.3 °C 34313.7 hPa Calm     62 % 0 mm 0.0 W/m2 CLR
06:22 -5.1 °C -9.4 °C 34313.7 hPa Calm     62 % 0 mm 0.0 W/m2 CLR
06:27 -5.2 °C -9.3 °C 34313.7 hPa Calm     63 % 0 mm 0.0 W/m2 CLR
06:32 -5.2 °C -9.3 °C 34313.7 hPa Calm     63 % 0 mm 0.0 W/m2 CLR
06:37 -5.2 °C -9.2 °C 34313.7 hPa Calm     64 % 0 mm 0.0 W/m2 CLR
06:42 -5.3 °C -9.3 °C 34313.7 hPa Calm     64 % 0 mm 0.0 W/m2 CLR
06:47 -5.3 °C -9.2 °C 34313.7 hPa Calm     65 % 0 mm 0.0 W/m2 CLR
06:52 -5.3 °C -9.2 °C 34313.7 hPa Calm     65 % 0 mm 0.0 W/m2 OVC
06:57 -5.3 °C -9.2 °C 34313.7 hPa Calm     65 % 0 mm 0.0 W/m2 OVC
07:02 -5.4 °C -9.2 °C 34313.7 hPa Calm     65 % 0 mm 5.0 W/m2 OVC
07:07 -5.4 °C -9.3 °C 34327.3 hPa Calm     65 % 0 mm 7.0 W/m2 BKN
07:12 -5.5 °C -9.2 °C 34327.3 hPa Calm     66 % 0 mm 11.0 W/m2 BKN
07:17 -5.5 °C -9.2 °C 34327.3 hPa Calm     66 % 0 mm 14.0 W/m2 BKN
07:22 -5.4 °C -9.2 °C 34327.3 hPa Calm     66 % 0 mm 23.0 W/m2 BKN
07:27 -5.4 °C -9 °C 34327.3 hPa Calm     67 % 0 mm 26.0 W/m2 BKN
07:32 -5.4 °C -9 °C 34313.7 hPa Calm     67 % 0 mm 33.0 W/m2 BKN
07:37 -5.3 °C -9.1 °C 34313.7 hPa Calm     66 % 0 mm 39.0 W/m2 BKN
07:42 -5.3 °C -9 °C 34313.7 hPa Calm     66 % 0 mm 42.0 W/m2 BKN
07:47 -5.2 °C -8.9 °C 34313.7 hPa Calm     66 % 0 mm 51.0 W/m2 SCT
07:52 -5.1 °C -8.8 °C 34313.7 hPa Calm     66 % 0 mm 49.0 W/m2 SCT
07:57 -5.2 °C -8.8 °C 34313.7 hPa Calm     66 % 0 mm 39.0 W/m2 BKN
08:02 -5.2 °C -8.8 °C 34313.7 hPa Calm     66 % 0 mm 37.0 W/m2 BKN
08:07 -5.2 °C -8.8 °C 34313.7 hPa Calm     66 % 0 mm 39.0 W/m2 BKN
08:12 -5.1 °C -8.8 °C 34327.3 hPa Calm     66 % 0 mm 88.0 W/m2 SCT
08:17 -4.9 °C -8.8 °C 34327.3 hPa Calm     65 % 0 mm 74.0 W/m2 SCT
08:22 -4.8 °C -8.7 °C 34327.3 hPa Calm     65 % 0 mm 114.0 W/m2 FEW
08:27 -4.8 °C -8.8 °C 34327.3 hPa Calm     64 % 0 mm 127.0 W/m2 CLR
08:32 -4.7 °C -8.7 °C 34327.3 hPa Calm     64 % 0 mm 167.0 W/m2 CLR
08:37 -4.5 °C -8.5 °C 34327.3 hPa Calm     64 % 0 mm 197.0 W/m2 CLR
08:42 -4.3 °C -8.5 °C 34327.3 hPa Calm     63 % 0 mm 213.0 W/m2 CLR
08:47 -4.1 °C -8.4 °C 34327.3 hPa Calm     62 % 0 mm 223.0 W/m2 CLR
08:52 -3.9 °C -8.4 °C 34337.4 hPa Calm     61 % 0 mm 239.0 W/m2 CLR
08:57 -3.7 °C -8.4 °C 34337.4 hPa Calm     60 % 0 mm 255.0 W/m2 CLR
09:02 -3.5 °C -8.2 °C 34337.4 hPa Calm     60 % 0 mm 274.0 W/m2 CLR
09:07 -3.3 °C -7.9 °C 34337.4 hPa Calm     60 % 0 mm 290.0 W/m2 CLR
09:12 -3.1 °C -7.9 °C 34337.4 hPa Calm     59 % 0 mm 304.0 W/m2 CLR
09:17 -2.9 °C -7.9 °C 34337.4 hPa Calm     58 % 0 mm 320.0 W/m2 CLR
09:22 -2.6 °C -7.8 °C 34337.4 hPa Calm     57 % 0 mm 334.0 W/m2 CLR
09:27 -2.4 °C -7.7 °C 34337.4 hPa WNW 17.9 km/h 17.9 km/h 56 % 0 mm 350.0 W/m2 CLR
09:32 -2.3 °C -7.6 °C 34337.4 hPa NNW 23.8 km/h 23.8 km/h 56 % 0 mm 366.0 W/m2 CLR
09:37 -2.2 °C -7.7 °C 34337.4 hPa NNW 23.8 km/h 23.8 km/h 55 % 0 mm 380.0 W/m2 CLR
09:42 -2.3 °C -7.7 °C 34337.4 hPa NW 17.9 km/h 17.9 km/h 55 % 0 mm 100.0 W/m2 CLR
09:47 -2.2 °C -7.6 °C 34337.4 hPa NNW 17.9 km/h   56 % 0 mm 188.0 W/m2 CLR
09:52 -2.2 °C -7.7 °C 34337.4 hPa NNW 29.8 km/h 29.8 km/h 55 % 0 mm 429.0 W/m2 CLR
09:57 -2.2 °C -7.7 °C 34337.4 hPa North 11.9 km/h 11.9 km/h 55 % 0 mm 441.0 W/m2 CLR
10:02 -2.2 °C -7.7 °C 34337.4 hPa NW 17.9 km/h 17.9 km/h 55 % 0 mm 457.0 W/m2 CLR
10:07 -2.2 °C -7.7 °C 34337.4 hPa Calm     55 % 0 mm 471.0 W/m2 CLR
10:12 -2.1 °C -7.6 °C 34337.4 hPa North 9 km/h 9 km/h 55 % 0 mm 485.0 W/m2 CLR
10:17 -1.9 °C -7.6 °C 34337.4 hPa North 28.5 km/h 28.5 km/h 54 % 0 mm 506.0 W/m2 CLR
10:21 -1.8 °C -7.5 °C 34337.4 hPa NE 15.6 km/h 15.6 km/h 54 % 0 mm 520.0 W/m2 CLR
10:26 -1.8 °C -7.6 °C 34337.4 hPa NNE 20.9 km/h 20.9 km/h 53 % 0 mm 534.0 W/m2 CLR
10:31 -1.7 °C -7.6 °C 34337.4 hPa NE 15 km/h 15 km/h 53 % 0 mm 545.0 W/m2 CLR
10:36 -1.5 °C -7.6 °C 34337.4 hPa ENE 11.9 km/h   52 % 0 mm 561.0 W/m2 CLR
10:41 -1.3 °C -7.6 °C 34337.4 hPa North 20.9 km/h 20.9 km/h 51 % 0 mm 573.0 W/m2 CLR
10:46 -1.4 °C -7.6 °C 34337.4 hPa Calm     51 % 0 mm 587.0 W/m2 CLR
10:51 -1.3 °C -7.6 °C 34337.4 hPa Calm     51 % 0 mm 601.0 W/m2 CLR
10:52 -1.3 °C -7.6 °C 34337.4 hPa Calm     51 % 0 mm 601.0 W/m2 CLR
10:57 -1.1 °C -7.4 °C 34337.4 hPa Calm     50 % 0 mm 615.0 W/m2 CLR
11:02 -0.9 °C -7.5 °C 34337.4 hPa NE 11.9 km/h 11.9 km/h 49 % 0 mm 628.0 W/m2 CLR
11:07 -0.7 °C -7.6 °C 34337.4 hPa North 15 km/h 15 km/h 48 % 0 mm 640.0 W/m2 CLR
11:12 -0.8 °C -7.7 °C 34337.4 hPa North 15 km/h 15 km/h 48 % 0 mm 652.0 W/m2 CLR
11:17 -0.9 °C -7.7 °C 34337.4 hPa Calm     48 % 0 mm 659.0 W/m2 CLR
11:22 -0.7 °C -7.5 °C 34337.4 hPa North 5.1 km/h 5.1 km/h 48 % 0 mm 679.0 W/m2 CLR
11:27 -0.7 °C -7.5 °C 34337.4 hPa ENE 3.1 km/h   48 % 0 mm 686.0 W/m2 CLR
11:32 -0.6 °C -7.6 °C 34337.4 hPa Calm     47 % 0 mm 700.0 W/m2 CLR
11:37 -0.6 °C -7.6 °C 34327.3 hPa Calm     47 % 0 mm 714.0 W/m2 CLR
11:42 -0.4 °C -7.7 °C 34327.3 hPa Calm     46 % 0 mm 721.0 W/m2 CLR
11:47 -0.5 °C -7.7 °C 34327.3 hPa Calm     46 % 0 mm 729.0 W/m2 CLR
11:52 -0.5 °C -7.6 °C 34327.3 hPa Calm     47 % 0 mm 738.0 W/m2 CLR
11:57 -0.3 °C -7.3 °C 34327.3 hPa ENE 10.3 km/h 10.3 km/h 47 % 0 mm 749.0 W/m2 CLR
12:02 -0.2 °C -7.4 °C 34327.3 hPa Calm   2.1 km/h 46 % 0 mm 756.0 W/m2 CLR
12:07 -0.2 °C -7.4 °C 34327.3 hPa ENE 6 km/h 6 km/h 46 % 0 mm 770.0 W/m2 CLR
12:12 -0.1 °C -7.5 °C 34327.3 hPa Calm     45 % 0 mm 775.0 W/m2 CLR
12:17 0.1 °C -7.6 °C 34327.3 hPa Calm     44 % 0 mm 780.0 W/m2 CLR
12:22 0.2 °C -7.5 °C 34327.3 hPa Calm     44 % 0 mm 738.0 W/m2 CLR
12:27 0.4 °C -7.6 °C 34327.3 hPa Calm     43 % 0 mm 796.0 W/m2 CLR
12:32 0.6 °C -7.3 °C 34313.7 hPa Calm     43 % 0 mm 812.0 W/m2 CLR
12:37 0.7 °C -7.7 °C 34313.7 hPa NE 9 km/h 9 km/h 41 % 0 mm 816.0 W/m2 CLR
12:42 0.8 °C -7.6 °C 34313.7 hPa NE 11.9 km/h 11.9 km/h 41 % 0 mm 823.0 W/m2 CLR
12:47 0.8 °C -7.6 °C 34313.7 hPa Calm     41 % 0 mm 831.0 W/m2 CLR
12:52 0.6 °C -7.7 °C 34313.7 hPa Calm     41 % 0 mm 835.0 W/m2 CLR
12:57 0.6 °C -7.7 °C 34313.7 hPa Calm     41 % 0 mm 840.0 W/m2 CLR
13:02 0.8 °C -7.6 °C 34303.6 hPa NE 12.9 km/h 12.9 km/h 41 % 0 mm 844.0 W/m2 CLR
13:07 0.9 °C -7.7 °C 34303.6 hPa Calm     40 % 0 mm 849.0 W/m2 CLR
13:12 1 °C -7.8 °C 34303.6 hPa Calm     39 % 0 mm 854.0 W/m2 CLR
13:17 1.2 °C -7.7 °C 34303.6 hPa ENE 3.1 km/h 3.1 km/h 39 % 0 mm 860.0 W/m2 CLR
13:22 1.4 °C -7.7 °C 34303.6 hPa Calm     38 % 0 mm 863.0 W/m2 CLR
13:27 1.6 °C -7.8 °C 34303.6 hPa Calm     37 % 0 mm 865.0 W/m2 CLR
13:32 1.6 °C -7.6 °C 34293.4 hPa North 10.3 km/h 10.3 km/h 38 % 0 mm 868.0 W/m2 CLR
13:37 1.4 °C -7.4 °C 34293.4 hPa ENE 15 km/h 15 km/h 39 % 0 mm 870.0 W/m2 CLR
13:42 1.5 °C -7.4 °C 34293.4 hPa NNE 23.8 km/h 23.8 km/h 39 % 0 mm 867.0 W/m2 CLR
13:47 1.6 °C -7.3 °C 34293.4 hPa ENE 15 km/h 15 km/h 39 % 0 mm 870.0 W/m2 CLR
13:52 1.7 °C -7.4 °C 34293.4 hPa Calm     38 % 0 mm 874.0 W/m2 CLR
13:57 1.7 °C -7.4 °C 34293.4 hPa NW 23.8 km/h 23.8 km/h 38 % 0 mm 877.0 W/m2 CLR
14:02 1.6 °C -7.3 °C 34279.9 hPa NE 28.5 km/h 28.5 km/h 39 % 0 mm 874.0 W/m2 CLR
14:07 1.7 °C -7.4 °C 34279.9 hPa NE 26.9 km/h 26.9 km/h 38 % 0 mm 881.0 W/m2 CLR
14:12 1.6 °C -7.5 °C 34279.9 hPa NNW 29.8 km/h 29.8 km/h 38 % 0 mm 877.0 W/m2 CLR
14:17 1.6 °C -7.3 °C 34279.9 hPa North 26.9 km/h 26.9 km/h 39 % 0 mm 870.0 W/m2 CLR
14:22 1.6 °C -7.5 °C 34279.9 hPa NE 29.8 km/h 29.8 km/h 38 % 0 mm 868.0 W/m2 CLR
14:27 1.6 °C -7.3 °C 34279.9 hPa NNE 17.9 km/h 17.9 km/h 39 % 0 mm 875.0 W/m2 CLR
14:32 1.8 °C -7.3 °C 34279.9 hPa North 29.8 km/h 29.8 km/h 38 % 0 mm 882.0 W/m2 CLR
14:37 1.7 °C -7.4 °C 34269.7 hPa NNE 20.9 km/h 20.9 km/h 38 % 0 mm 865.0 W/m2 CLR
14:42 1.8 °C -7.3 °C 34269.7 hPa NNE 26.9 km/h 26.9 km/h 38 % 0 mm 863.0 W/m2 CLR
14:47 1.9 °C -7.4 °C 34269.7 hPa East 17.9 km/h 17.9 km/h 37 % 0 mm 877.0 W/m2 CLR
14:52 1.9 °C -7.2 °C 34256.2 hPa NNW 20.9 km/h 20.9 km/h 38 % 0 mm 907.0 W/m2 CLR
14:57 2 °C -7.4 °C 34256.2 hPa NNE 11.9 km/h 11.9 km/h 37 % 0 mm 921.0 W/m2 CLR
15:02 1.9 °C -7.5 °C 34256.2 hPa North 15.6 km/h 15.6 km/h 37 % 0 mm 253.0 W/m2 CLR
15:07 2 °C -7.4 °C 34256.2 hPa NNW 20.9 km/h 20.9 km/h 37 % 0 mm 768.0 W/m2 CLR
15:12 2.1 °C -7.3 °C 34256.2 hPa North 17.9 km/h   37 % 0 mm 840.0 W/m2 CLR
15:17 2.3 °C -7.4 °C 34256.2 hPa NE 23.8 km/h 23.8 km/h 36 % 0 mm 842.0 W/m2 CLR
15:22 2.4 °C -7.3 °C 34256.2 hPa NE 9 km/h 9 km/h 36 % 0 mm 830.0 W/m2 CLR
15:27 2.6 °C -7.2 °C 34256.2 hPa NW 12.9 km/h 12.9 km/h 36 % 0 mm 828.0 W/m2 CLR
15:32 2.6 °C -7.2 °C 34246 hPa WNW 17.9 km/h 17.9 km/h 36 % 0 mm 826.0 W/m2 CLR
15:37 2.6 °C -7.4 °C 34246 hPa NNW 23.8 km/h 23.8 km/h 35 % 0 mm 828.0 W/m2 CLR
15:42 2.6 °C -7.3 °C 34246 hPa North 15.6 km/h 15.6 km/h 35 % 0 mm 826.0 W/m2 CLR
15:47 2.7 °C -7.3 °C 34246 hPa NNE 23.8 km/h 23.8 km/h 35 % 0 mm 847.0 W/m2 CLR
15:57 2.4 °C -7.3 °C 34246 hPa WNW 9 km/h 9 km/h 36 % 0 mm 842.0 W/m2 CLR
16:02 2.7 °C -7.1 °C 34246 hPa WNW 15 km/h 15 km/h 36 % 0 mm 837.0 W/m2 CLR
16:07 2.7 °C -7.3 °C 34246 hPa NNE 38.8 km/h 38.8 km/h 35 % 0 mm 761.0 W/m2 CLR
16:12 2.5 °C -7.2 °C 34246 hPa NW 17.9 km/h 17.9 km/h 36 % 0 mm 817.0 W/m2 CLR
16:17 2.6 °C -7.3 °C 34235.8 hPa NW 23.8 km/h 23.8 km/h 35 % 0 mm 772.0 W/m2 CLR
16:22 2.7 °C -7.3 °C 34235.8 hPa NNE 29.8 km/h 29.8 km/h 35 % 0 mm 694.0 W/m2 CLR
16:32 2.7 °C -7.3 °C 34235.8 hPa NNW 9 km/h 9 km/h 35 % 0 mm 652.0 W/m2 CLR
16:37 2.7 °C -7.3 °C 34235.8 hPa Calm     35 % 0 mm 717.0 W/m2 CLR
16:42 2.8 °C -7.2 °C 34235.8 hPa NNE 17.9 km/h 17.9 km/h 35 % 0 mm 640.0 W/m2 CLR
16:47 2.8 °C -7.2 °C 34235.8 hPa NW 17.9 km/h 17.9 km/h 35 % 0 mm 689.0 W/m2 CLR
16:57 3 °C -7.3 °C 34235.8 hPa North 15 km/h 15 km/h 34 % 0 mm 533.0 W/m2 CLR
17:02 3 °C -7.3 °C 34235.8 hPa West 3.1 km/h 3.1 km/h 34 % 0 mm 214.0 W/m2 CLR
17:07 2.9 °C -7.4 °C 34235.8 hPa NNE 9 km/h   34 % 0 mm 241.0 W/m2 CLR
17:12 2.7 °C -7.3 °C 34235.8 hPa NNW 11.9 km/h 11.9 km/h 35 % 0 mm 218.0 W/m2 CLR
17:17 2.5 °C -7.4 °C 34235.8 hPa WNW 17.9 km/h 17.9 km/h 35 % 0 mm 223.0 W/m2 CLR
17:22 2.3 °C -7.6 °C 34235.8 hPa WNW 26.9 km/h 26.9 km/h 35 % 0 mm 218.0 W/m2 CLR
17:27 2.2 °C -7.7 °C 34235.8 hPa WNW 23.3 km/h 23.3 km/h 35 % 0 mm 207.0 W/m2 CLR
17:32 2.1 °C -7.6 °C 34235.8 hPa West 11.9 km/h 11.9 km/h 36 % 0 mm 199.0 W/m2 CLR
17:37 2.1 °C -7.6 °C 34235.8 hPa WNW 26.9 km/h 26.9 km/h 36 % 0 mm 192.0 W/m2 CLR
17:42 2 °C -7.7 °C 34235.8 hPa WSW 9 km/h 9 km/h 36 % 0 mm 183.0 W/m2 CLR
17:47 1.9 °C -7.7 °C 34235.8 hPa West 23.8 km/h 23.8 km/h 36 % 0 mm 183.0 W/m2 CLR
17:52 1.8 °C -7.8 °C 34235.8 hPa West 11.9 km/h 11.9 km/h 36 % 0 mm 181.0 W/m2 CLR
17:57 1.8 °C -7.6 °C 34235.8 hPa West 15.6 km/h 15.6 km/h 37 % 0 mm 178.0 W/m2 CLR
18:02 1.8 °C -7.8 °C 34222.3 hPa WSW 11.9 km/h 11.9 km/h 36 % 0 mm 178.0 W/m2 CLR
18:07 1.8 °C -7.8 °C 34222.3 hPa WSW 9 km/h 9 km/h 36 % 0 mm 188.0 W/m2 CLR
18:12 1.7 °C -7.7 °C 34222.3 hPa Calm     37 % 0 mm 193.0 W/m2 CLR
18:17 1.7 °C -7.7 °C 34222.3 hPa Calm     37 % 0 mm 216.0 W/m2 CLR
18:22 1.8 °C -7.6 °C 34222.3 hPa West 11.9 km/h 11.9 km/h 37 % 0 mm 283.0 W/m2 CLR
18:27 2 °C -7.7 °C 34222.3 hPa Calm     36 % 0 mm 506.0 W/m2 CLR
18:32 2.3 °C -7.4 °C 34212.1 hPa Calm     36 % 0 mm 554.0 W/m2 CLR
18:37 2.3 °C -7.7 °C 34222.3 hPa SSW 3.1 km/h 3.1 km/h 35 % 0 mm 262.0 W/m2 CLR
18:42 2.3 °C -7.6 °C 34222.3 hPa West 11.9 km/h 11.9 km/h 35 % 0 mm 538.0 W/m2 CLR
18:47 2.4 °C -7.5 °C 34212.1 hPa Calm     35 % 0 mm 466.0 W/m2 CLR
18:48 2.5 °C -7.4 °C 34212.1 hPa Calm     35 % 0 mm 455.0 W/m2 CLR
18:53 2.7 °C -7.6 °C 34212.1 hPa Calm     34 % 0 mm 352.0 W/m2 CLR
18:58 2.6 °C -7.6 °C 34212.1 hPa Calm     34 % 0 mm 165.0 W/m2 CLR
19:03 2.4 °C -7.7 °C 34212.1 hPa Calm     34 % 0 mm 121.0 W/m2 CLR
19:08 2.4 °C -7 °C 34212.1 hPa Calm     37 % 0 mm 332.0 W/m2 CLR
19:13 2.4 °C -7.6 °C 34212.1 hPa WSW 6 km/h 6 km/h 35 % 0 mm 207.0 W/m2 CLR
19:18 2.3 °C -7.9 °C 34222.3 hPa Calm     34 % 0 mm 162.0 W/m2 CLR
19:23 2.2 °C -7.9 °C 34222.3 hPa Calm     34 % 0 mm 104.0 W/m2 CLR
19:28 2.1 °C -6.9 °C 34222.3 hPa Calm     39 % 0 mm 86.0 W/m2 CLR
19:33 1.9 °C -7.9 °C 34222.3 hPa West 15.6 km/h 15.6 km/h 35 % 0 mm 77.0 W/m2 CLR
19:38 1.8 °C -7.8 °C 34222.3 hPa West 9 km/h 9 km/h 36 % 0 mm 77.0 W/m2 FEW
19:43 1.8 °C -7.8 °C 34222.3 hPa WNW 9 km/h 9 km/h 36 % 0 mm 74.0 W/m2 FEW
19:48 1.7 °C -7.9 °C 34222.3 hPa WSW 11.9 km/h 11.9 km/h 36 % 0 mm 72.0 W/m2 FEW
19:53 1.7 °C -7.9 °C 34222.3 hPa SW 9 km/h 9 km/h 36 % 0 mm 69.0 W/m2 FEW
19:58 1.6 °C -9.1 °C 34235.8 hPa SW 25.9 km/h 25.9 km/h 32 % 0 mm 91.0 W/m2 FEW
20:03 1.6 °C -9.3 °C 34235.8 hPa SW 23.8 km/h 23.8 km/h 31 % 0 mm 146.0 W/m2 CLR
20:08 1.7 °C -8.7 °C 34235.8 hPa SW 26.9 km/h 26.9 km/h 33 % 0 mm 135.0 W/m2 CLR
20:13 1.7 °C -9 °C 34235.8 hPa SW 20.9 km/h 20.9 km/h 32 % 0 mm 111.0 W/m2 CLR
20:18 1.6 °C -9.1 °C 34235.8 hPa West 26.9 km/h 26.9 km/h 32 % 0 mm 111.0 W/m2 CLR
20:23 1.3 °C -8.5 °C 34235.8 hPa West 29.8 km/h 29.8 km/h 35 % 0 mm 95.0 W/m2 CLR
20:28 1.2 °C -8.6 °C 34235.8 hPa West 17.9 km/h 17.9 km/h 35 % 0 mm 84.0 W/m2 CLR
20:33 1.2 °C -8.4 °C 34222.3 hPa WSW 11.9 km/h 11.9 km/h 36 % 0 mm 74.0 W/m2 FEW
20:38 1.1 °C -8.4 °C 34222.3 hPa West 17.9 km/h 17.9 km/h 36 % 0 mm 60.0 W/m2 SCT
20:43 1.1 °C -8.5 °C 34222.3 hPa West 12.9 km/h 12.9 km/h 36 % 0 mm 51.0 W/m2 SCT
20:58 0.9 °C -8.2 °C 34235.8 hPa West 6 km/h 6 km/h 38 % 0 mm 37.0 W/m2 BKN
21:03 0.6 °C -7.8 °C 34256.2 hPa NW 41.7 km/h 41.7 km/h 41 % 0 mm 32.0 W/m2 BKN
21:08 0 °C -7.9 °C 34256.2 hPa NW 41.7 km/h 41.7 km/h 43 % 0 mm 26.0 W/m2 BKN
21:13 -0.4 °C -8 °C 34256.2 hPa NNW 50.7 km/h 50.7 km/h 44 % 0 mm 19.0 W/m2 BKN
21:18 -0.7 °C -8.1 °C 34256.2 hPa NW 50.7 km/h 50.7 km/h 45 % 0 mm 12.0 W/m2 OVC
21:23 -0.9 °C -8.1 °C 34256.2 hPa NW 44.7 km/h 44.7 km/h 46 % 0 mm 0.0 W/m2 CLR
21:28 -1 °C -8.2 °C 34269.7 hPa NW 31.1 km/h 31.1 km/h 46 % 0 mm 0.0 W/m2 CLR
21:33 -1.2 °C -8.4 °C 34279.9 hPa NW 44.7 km/h 44.7 km/h 46 % 0 mm 0.0 W/m2 CLR
21:38 -1.4 °C -8.3 °C 34279.9 hPa NW 47.6 km/h 47.6 km/h 47 % 0 mm 0.0 W/m2 CLR
21:43 -1.6 °C -8.3 °C 34279.9 hPa NW 50.7 km/h 50.7 km/h 48 % 0 mm 0.0 W/m2 CLR
21:48 -1.8 °C -8.5 °C 34293.4 hPa West 47.6 km/h 47.6 km/h 48 % 0 mm 0.0 W/m2 CLR
21:53 -1.9 °C -8.7 °C 34293.4 hPa NW 38.8 km/h 38.8 km/h 48 % 0 mm 0.0 W/m2 CLR
21:58 -2.1 °C -8.6 °C 34303.6 hPa WNW 29.8 km/h 29.8 km/h 49 % 0 mm 0.0 W/m2 CLR
22:03 -2.3 °C -8.8 °C 34303.6 hPa NW 46.7 km/h 46.7 km/h 49 % 0 mm 0.0 W/m2 CLR
22:08 -2.4 °C -8.8 °C 34313.7 hPa WNW 29.8 km/h 29.8 km/h 50 % 0 mm 0.0 W/m2 CLR
22:12 -2.6 °C -8.9 °C 34313.7 hPa NW 35.7 km/h 35.7 km/h 50 % 0 mm 0.0 W/m2 CLR
22:27 -2.9 °C -9 °C 34327.3 hPa West 50.7 km/h 50.7 km/h 51 % 0 mm 0.0 W/m2 CLR
22:32 -2.9 °C -9.1 °C 34327.3 hPa WNW 35.7 km/h 35.7 km/h 51 % 0 mm 0.0 W/m2 CLR
22:37 -2.9 °C -9.1 °C 34327.3 hPa WNW 15 km/h 15 km/h 51 % 0 mm 0.0 W/m2 CLR
22:42 -3 °C -8.9 °C 34337.4 hPa NW 29.8 km/h 29.8 km/h 52 % 0 mm 0.0 W/m2 CLR
22:47 -3.1 °C -9.1 °C 34337.4 hPa West 23.8 km/h 23.8 km/h 52 % 0 mm 0.0 W/m2 CLR
22:52 -3.2 °C -9.1 °C 34337.4 hPa WNW 26.9 km/h 26.9 km/h 52 % 0 mm 0.0 W/m2 CLR
22:57 -3.3 °C -9.2 °C 34337.4 hPa WNW 29.8 km/h 29.8 km/h 52 % 0 mm 0.0 W/m2 CLR
23:02 -3.4 °C -9.2 °C 34337.4 hPa WNW 28.5 km/h 28.5 km/h 53 % 0 mm 0.0 W/m2 CLR
23:07 -3.6 °C -9.3 °C 34347.6 hPa NW 29.8 km/h 29.8 km/h 53 % 0 mm 0.0 W/m2 CLR
23:12 -3.7 °C -9.2 °C 34361.1 hPa WNW 31.1 km/h 31.1 km/h 54 % 0 mm 0.0 W/m2 CLR
23:13 -3.7 °C -9.2 °C 34347.6 hPa WNW 29.8 km/h 29.8 km/h 54 % 0 mm 0.0 W/m2 CLR
23:18 -3.8 °C -9.3 °C 34361.1 hPa WNW 41.7 km/h 41.7 km/h 54 % 0 mm 0.0 W/m2 CLR
23:23 -3.9 °C -9.3 °C 34361.1 hPa WNW 28.5 km/h 28.5 km/h 55 % 0 mm 0.0 W/m2 CLR
23:28 -4 °C -9.3 °C 34361.1 hPa West 38.8 km/h 38.8 km/h 55 % 0 mm 0.0 W/m2 CLR
23:33 -4 °C -9.4 °C 34361.1 hPa WNW 26.9 km/h 26.9 km/h 55 % 0 mm 0.0 W/m2 CLR
23:38 -4.1 °C -9.3 °C 34371.3 hPa WNW 29.8 km/h 29.8 km/h 56 % 0 mm 0.0 W/m2 CLR
23:43 -4.1 °C -9.3 °C 34371.3 hPa Calm     56 % 0 mm 0.0 W/m2 CLR
23:48 -4.2 °C -9.3 °C 34371.3 hPa West 11.9 km/h 11.9 km/h 56 % 0 mm 0.0 W/m2 CLR
23:53 -4.2 °C -9.4 °C 34371.3 hPa Calm     56 % 0 mm 0.0 W/m2 CLR
23:54 -4.2 °C -9.2 °C 34371.3 hPa Calm     57 % 0 mm 0.0 W/m2 CLR
23:59 -4.3 °C -9.3 °C 34371.3 hPa WSW 11.9 km/h 11.9 km/h 57 % 0 mm 0.0 W/m2 CLR
Lo Temps de Massalio
Compliments of Weather Underground - 1.25 mb